Weather WX

World > North America > United States > Missouri

Granger, Missouri Regional Weather

Lat: 40.47N, Lon: 91.97W
Wx Zone: MOZ009
Warning FLW WEATHER ALERT - (More Info. Click Here) Warning
Feedback

Granger, MO Regional Weather

Expires:201906251200;;050062
ASUS43 KLSX 251107
RWRMO 

WEATHER SUMMARY FOR MISSOURI
NATIONAL WEATHER SERVICE SPRINGFIELD MO
600 AM CDT TUE JUN 25 2019

NOTE: "FAIR" INDICATES FEW OR NO CLOUDS BELOW 12,000 FEET WITH NO
       SIGNIFICANT WEATHER AND/OR OBSTRUCTIONS TO VISIBILITY.
       CURRENT SKY AND/OR WEATHER CONDITIONS ARE NOT AVAILABLE FOR
       CHILLICOTHE AND FARMINGTON.


MOZ001>031-035>038-043-044-053-054-251200-
...NORTHERN AND WESTERN MISSOURI...
  
CITY           SKY/WX    TMP DP  RH WIND       PRES   REMARKS
KANSAS CTY INT PTCLDY    65  59  81 S10       29.89R                  
KANSAS C DTWN  CLEAR     69  58  67 S7        29.89R                  
LEE'S SUMMIT   CLEAR     66  58  75 S10       29.91R                  
ST JOSEPH      CLEAR     67  60  78 S7        29.88R                  
CHILLICOTHE      N/A     65  60  84 S5        29.91R                  
KIRKSVILLE     CLEAR     62  59  90 SW6       29.91R                  
     
$$

SKY/WX - Weather  TMP - Temperature  DP - Dew Point  RH - Relative Humidity
WIND - Wind Direction/Speed PRES - Barometric Pressure VSB - Visibility
WCI - Wind Chill Index E13G22 Wind - East Wind 13 mph/Gusts of 22 mph